Location: Del Amo
(33.8464°N, 118.2104°W)
Time: 07:08:47
(UTC+00:00)

Vanguard 3 - Pass Details

Date: 22 September 2024
Orbit: 507 x 3223 km, 33.3° (Epoch: 09 October)

Event Time Altitude Azimuth Distance (km) Brightness Sun altitude
Rises 09:19:24 0° 190° (S) 4,797 - -49.6°
Reaches altitude 10° 09:23:15 10° 175° (S) 4,235 - -49.1°
Exits shadow 09:31:01 22° 134° (SE) 4,064 10.5 -48.0°
Maximum altitude 09:31:52 22° 130° (SE) 4,124 10.6 -47.9°
Drops below altitude 10° 09:43:18 10° 88° (E) 5,818 11.8 -46.3°
Sets 09:49:53 0° 76° (ENE) 7,086 12.5 -45.3°
